When you browse on this site, cookies collect data to enhance your experience and personalize the content and advertising you see.
Visit our Privacy Policy to learn more. By continuing to use the site, you agree to this use of cookies and data.
  • In United Kingdom
  • List of Countries
  • For 7 days
  • Water Temperature
  • Weather Map
  • Weather Widgets
  • user-avatar
    Login

    Hourly Weather Wojtostwo

    Today, 21 October, Monday

    Time Temperature Precipitation Wind Pressure Humidity
    00:00 +15°C° 0 mm 1 mps 753 mmHg 78%
    01:00 +14°C° 0 mm 1 mps 753 mmHg 80%
    02:00 +14°C° 0 mm 1 mps 753 mmHg 80%
    03:00 +14°C° 0 mm 1 mps 753 mmHg 81%
    04:00 +14°C° 0 mm 1 mps 753 mmHg 81%
    05:00 +14°C° 0 mm 2 mps 753 mmHg 81%
    06:00 +14°C° 0 mm 2 mps 753 mmHg 82%
    07:00 +14°C° 0 mm 1 mps 753 mmHg 77%
    08:00 +16°C° 0 mm 1 mps 754 mmHg 70%
    09:00 +19°C° 0 mm 1 mps 754 mmHg 64%
    10:00 +19°C° 0 mm 0 mps 754 mmHg 57%
    11:00 +22°C° 0 mm 1 mps 754 mmHg 55%
    12:00 +22°C° 0 mm 1 mps 755 mmHg 53%
    13:00 +24°C° 0 mm 1 mps 755 mmHg 50%
    14:00 +23°C° 0 mm 1 mps 755 mmHg 55%
    15:00 +22°C° 0 mm 1 mps 755 mmHg 59%
    16:00 +21°C° 0 mm 1 mps 755 mmHg 64%
    17:00 +20°C° 0 mm 1 mps 755 mmHg 67%
    18:00 +19°C° 0 mm 1 mps 756 mmHg 70%
    19:00 +18°C° 0 mm 1 mps 756 mmHg 73%
    20:00 +18°C° 0 mm 1 mps 756 mmHg 74%
    21:00 +16°C° 0 mm 1 mps 756 mmHg 75%
    22:00 +16°C° 0 mm 1 mps 756 mmHg 76%
    23:00 +16°C° 0 mm 2 mps 756 mmHg 77%

    Tomorrow, 22 October, Tuesday

    Time Temperature Precipitation Wind Pressure Humidity
    00:00 +16°C° 0 mm 2 mps 756 mmHg 77%
    01:00 +15°C° 0 mm 2 mps 756 mmHg 77%
    02:00 +15°C° 0 mm 1 mps 756 mmHg 78%
    03:00 +15°C° 0 mm 1 mps 756 mmHg 80%
    04:00 +14°C° 0 mm 1 mps 756 mmHg 81%
    05:00 +14°C° 0 mm 1 mps 756 mmHg 81%
    06:00 +14°C° 0 mm 1 mps 757 mmHg 82%
    07:00 +14°C° 0 mm 1 mps 757 mmHg 82%
    08:00 +16°C° 0 mm 1 mps 757 mmHg 75%
    09:00 +17°C° 0 mm 2 mps 757 mmHg 69%
    10:00 +19°C° 0 mm 2 mps 757 mmHg 62%
    11:00 +21°C° 0 mm 1 mps 757 mmHg 59%
    12:00 +22°C° 0 mm 1 mps 757 mmHg 56%
    13:00 +23°C° 0 mm 1 mps 757 mmHg 53%
    14:00 +22°C° 0 mm 1 mps 756 mmHg 57%
    15:00 +21°C° 0 mm 1 mps 756 mmHg 62%
    16:00 +20°C° 0 mm 1 mps 756 mmHg 66%
    17:00 +19°C° 0 mm 1 mps 756 mmHg 70%
    18:00 +19°C° 0 mm 1 mps 756 mmHg 74%
    19:00 +18°C° 0 mm 1 mps 757 mmHg 78%
    20:00 +16°C° 0 mm 1 mps 756 mmHg 80%
    21:00 +16°C° 0 mm 1 mps 756 mmHg 83%
    22:00 +15°C° 0 mm 1 mps 756 mmHg 85%
    23:00 +15°C° 0 mm 1 mps 756 mmHg 87%

    Day after tomorrow, 23 October, Wednesday

    Time Temperature Precipitation Wind Pressure Humidity
    00:00 +15°C° 0 mm 1 mps 756 mmHg 89%
    01:00 +14°C° 0 mm 2 mps 756 mmHg 91%
    02:00 +14°C° 0 mm 2 mps 756 mmHg 92%
    03:00 +14°C° 0 mm 2 mps 756 mmHg 93%
    04:00 +14°C° 0 mm 2 mps 756 mmHg 95%
    05:00 +13°C° 0 mm 2 mps 756 mmHg 95%
    06:00 +13°C° 0 mm 2 mps 756 mmHg 95%
    07:00 +13°C° 0 mm 2 mps 757 mmHg 95%
    08:00 +15°C° 0 mm 1 mps 757 mmHg 88%
    09:00 +16°C° 0 mm 1 mps 757 mmHg 80%
    10:00 +19°C° 0 mm 1 mps 757 mmHg 73%
    11:00 +19°C° 0 mm 1 mps 757 mmHg 68%
    12:00 +20°C° 0 mm 1 mps 756 mmHg 64%
    13:00 +21°C° 0 mm 1 mps 756 mmHg 60%
    14:00 +20°C° 0 mm 1 mps 756 mmHg 63%
    15:00 +20°C° 0 mm 1 mps 756 mmHg 66%
    16:00 +19°C° 0 mm 1 mps 755 mmHg 68%
    17:00 +17°C° 0 mm 2 mps 755 mmHg 71%
    18:00 +16°C° 0 mm 2 mps 755 mmHg 74%
    19:00 +15°C° 0 mm 2 mps 756 mmHg 77%
    20:00 +15°C° 0 mm 2 mps 755 mmHg 79%
    21:00 +14°C° 0 mm 2 mps 755 mmHg 82%
    22:00 +13°C° 0 mm 3 mps 755 mmHg 85%
    23:00 +13°C° 0 mm 3 mps 755 mmHg 86%

    24 October, Thursday

    Time Temperature Precipitation Wind Pressure Humidity
    00:00 +12°C° 0 mm 3 mps 755 mmHg 88%
    01:00 +12°C° 0 mm 3 mps 755 mmHg 90%
    02:00 +12°C° 0 mm 3 mps 755 mmHg 92%
    03:00 +12°C° 0 mm 3 mps 754 mmHg 93%
    04:00 +12°C° 0 mm 3 mps 754 mmHg 94%
    05:00 +12°C° 0 mm 3 mps 754 mmHg 94%
    06:00 +12°C° 0 mm 4 mps 753 mmHg 94%
    07:00 +12°C° 0 mm 4 mps 753 mmHg 94%
    08:00 +14°C° 0 mm 4 mps 753 mmHg 86%
    09:00 +16°C° 0 mm 5 mps 753 mmHg 78%
    10:00 +19°C° 0 mm 5 mps 752 mmHg 70%
    11:00 +20°C° 0 mm 5 mps 752 mmHg 64%
    12:00 +21°C° 0 mm 5 mps 752 mmHg 59%
    13:00 +22°C° 0 mm 5 mps 752 mmHg 53%
    14:00 +21°C° 0 mm 4 mps 751 mmHg 56%
    15:00 +20°C° 0 mm 4 mps 751 mmHg 59%
    16:00 +19°C° 0 mm 3 mps 751 mmHg 62%
    17:00 +18°C° 0 mm 3 mps 751 mmHg 66%
    18:00 +18°C° 0 mm 4 mps 751 mmHg 70%
    19:00 +17°C° 0 mm 4 mps 751 mmHg 74%
    20:00 +16°C° 0 mm 3 mps 751 mmHg 75%
    21:00 +14°C° 0 mm 3 mps 751 mmHg 77%
    22:00 +14°C° 0 mm 3 mps 751 mmHg 79%
    23:00 +14°C° 0 mm 2 mps 751 mmHg 79%

    25 October, Friday

    Time Temperature Precipitation Wind Pressure Humidity
    00:00 +14°C° 0 mm 2 mps 751 mmHg 79%
    01:00 +14°C° 0 mm 2 mps 752 mmHg 80%
    02:00 +14°C° 0 mm 2 mps 752 mmHg 79%
    03:00 +13°C° 0 mm 2 mps 752 mmHg 79%
    04:00 +13°C° 0 mm 2 mps 752 mmHg 78%
    05:00 +13°C° 0 mm 2 mps 752 mmHg 77%
    06:00 +13°C° 0 mm 2 mps 752 mmHg 75%
    07:00 +14°C° 0 mm 2 mps 753 mmHg 74%
    08:00 +14°C° 0 mm 3 mps 753 mmHg 68%
    09:00 +17°C° 0 mm 3 mps 754 mmHg 63%
    10:00 +19°C° 0 mm 4 mps 754 mmHg 57%
    11:00 +19°C° 0 mm 4 mps 754 mmHg 57%
    12:00 +20°C° 0 mm 4 mps 754 mmHg 58%
    13:00 +21°C° 0 mm 4 mps 754 mmHg 58%
    14:00 +20°C° 0 mm 3 mps 754 mmHg 63%
    15:00 +19°C° 0 mm 3 mps 755 mmHg 68%
    16:00 +18°C° 0 mm 2 mps 755 mmHg 74%
    17:00 +17°C° 0 mm 2 mps 755 mmHg 78%
    18:00 +16°C° 0 mm 2 mps 755 mmHg 82%
    19:00 +15°C° 0 mm 2 mps 755 mmHg 86%
    20:00 +15°C° 0 mm 1 mps 755 mmHg 87%
    21:00 +14°C° 0 mm 1 mps 755 mmHg 89%
    22:00 +14°C° 0 mm 1 mps 756 mmHg 90%
    23:00 +14°C° 0 mm 1 mps 755 mmHg 90%

    26 October, Saturday

    Time Temperature Precipitation Wind Pressure Humidity
    00:00 +13°C° 0 mm 1 mps 755 mmHg 90%
    01:00 +12°C° 0 mm 0 mps 755 mmHg 91%
    02:00 +13°C° 0 mm 1 mps 755 mmHg 91%
    03:00 +13°C° 0 mm 1 mps 755 mmHg 91%
    04:00 +13°C° 0 mm 1 mps 755 mmHg 92%
    05:00 +12°C° 0 mm 2 mps 754 mmHg 92%
    06:00 +12°C° 0 mm 2 mps 754 mmHg 93%
    07:00 +12°C° 0 mm 2 mps 754 mmHg 93%
    08:00 +13°C° 0 mm 3 mps 754 mmHg 86%
    09:00 +16°C° 0 mm 3 mps 754 mmHg 78%
    10:00 +18°C° 0 mm 4 mps 754 mmHg 71%
    11:00 +19°C° 0 mm 4 mps 753 mmHg 65%
    12:00 +20°C° 0 mm 4 mps 753 mmHg 60%
    13:00 +21°C° 0 mm 5 mps 752 mmHg 54%
    14:00 +20°C° 0 mm 4 mps 752 mmHg 58%
    15:00 +19°C° 0 mm 4 mps 752 mmHg 62%
    16:00 +18°C° 0 mm 3 mps 751 mmHg 66%
    17:00 +17°C° 0 mm 3 mps 751 mmHg 70%
    18:00 +16°C° 0 mm 3 mps 752 mmHg 74%
    19:00 +14°C° 0 mm 3 mps 752 mmHg 78%
    20:00 +14°C° 0 mm 3 mps 752 mmHg 80%
    21:00 +14°C° 0 mm 3 mps 752 mmHg 82%
    22:00 +13°C° 0 mm 3 mps 752 mmHg 84%
    23:00 +13°C° 0 mm 3 mps 752 mmHg 85%

    27 October, Sunday

    Time Temperature Precipitation Wind Pressure Humidity
    00:00 +13°C° 0 mm 3 mps 751 mmHg 85%
    01:00 +13°C° 0 mm 3 mps 751 mmHg 86%
    02:00 +13°C° 0 mm 4 mps 751 mmHg 85%
    03:00 +13°C° 0 mm 4 mps 751 mmHg 84%
    04:00 +13°C° 0 mm 4 mps 751 mmHg 83%
    05:00 +12°C° 0.1 mm 5 mps 751 mmHg 82%
    06:00 +10°C° 0.1 mm 5 mps 752 mmHg 81%
    07:00 +10°C° 0.1 mm 6 mps 752 mmHg 79%
    08:00 +9°C° 0.1 mm 6 mps 753 mmHg 77%
    09:00 +9°C° 0.1 mm 5 mps 753 mmHg 75%
    10:00 +9°C° 0.1 mm 5 mps 754 mmHg 72%
    11:00 +9°C° 0 mm 5 mps 754 mmHg 64%
    12:00 +9°C° 0 mm 6 mps 754 mmHg 55%
    13:00 +10°C° 0 mm 6 mps 755 mmHg 46%
    14:00 +9°C° 0 mm 5 mps 755 mmHg 48%
    15:00 +9°C° 0 mm 5 mps 755 mmHg 51%
    16:00 +8°C° 0 mm 4 mps 755 mmHg 53%
    17:00 +8°C° 0 mm 4 mps 755 mmHg 55%
    18:00 +7°C° 0 mm 4 mps 755 mmHg 57%
    19:00 +7°C° 0 mm 5 mps 755 mmHg 59%
    20:00 +6°C° 0 mm 5 mps 755 mmHg 62%
    21:00 +6°C° 0 mm 4 mps 756 mmHg 65%
    22:00 +6°C° 0 mm 4 mps 756 mmHg 69%
    23:00 +6°C° 0 mm 4 mps 755 mmHg 70%
    Show more